Location: Hylvaty SDH
(49.9612°N, 16.4057°E)
Time: 01:52:52
(UTC+01:00)

Transit 4A - Pass Details

Date: 12 August 2020
Orbit: 864 x 981 km, 66.8° (Epoch: 15 January)

Event Time Altitude Azimuth Distance (km) Brightness Sun altitude
Rises 16:43:54 0° 322° (NW) 3,620 11.2 32.8°
Reaches altitude 10° 16:46:38 10° 331° (NNW) 2,689 10.6 32.3°
Maximum altitude 16:52:29 39° 39° (NE) 1,428 8.8 31.4°
Drops below altitude 10° 16:58:24 10° 107° (ESE) 2,727 10.0 30.5°
Sets 17:01:11 0° 115° (ESE) 3,676 10.6 30.1°
